Cloud_Cover
100 100 100 100 100 100 28 92 100 100 97 100 100 99 92 71 100 100 100 100 89 100 93 100 100 100 93 100 20 95 76 100 100 100 49 5 5 5 5 1 2 0 0 5 5 3 21 77 96
100 100 100 100 100 100 100 100 100 100 100 100 100 79 98 100 91 100 100 100 96 91 92 100 100 100 100 100 31 100 95 100 100 100 10 5 3 5 5 2 2 5 2 0 2 3 2 22 94
100 100 100 100 100 100 100 100 100 100 100 90 100 100 91 56 100 100 100 100 100 100 100 99 100 99 100 100 100 100 100 73 100 100 93 5 5 5 5 4 4 5 0 1 0 0 0 13 97
100 100 100 100 100 100 100 96 100 100 91 88 99 44 18 9 62 96 100 92 82 100 100 100 100 100 100 100 100 100 100 100 100 100 55 5 5 7 6 5 5 5 2 0 0 0 0 5 5
99 93 100 100 100 100 100 91 17 88 28 69 5 53 50 59 11 58 100 95 100 100 100 100 100 84 89 100 100 100 100 100 100 74 48 5 6 10 63 5 5 5 29 4 0 0 0 3 5
100 100 100 100 100 100 100 36 93 94 62 64 12 5 20 5 5 67 83 100 96 100 100 100 99 100 33 100 100 100 100 100 100 100 100 5 6 46 5 5 43 8 5 77 20 5 2 0 5
100 97 50 100 100 100 100 13 88 6 5 5 5 10 21 32 20 27 88 96 94 100 100 95 100 100 75 100 96 100 100 99 100 100 100 100 5 35 5 5 32 100 5 5 85 96 31 5 0
100 100 100 100 100 100 33 46 6 5 5 5 5 27 61 52 38 44 82 80 100 100 100 92 100 100 99 65 100 100 100 100 100 100 74 95 38 67 31 6 5 98 66 5 5 26 100 6 5
100 98 100 100 96 3 3 0 7 2 0 0 0 1 1 5 6 5 16 36 97 100 96 99 100 100 96 53 83 100 100 100 100 100 100 100 88 41 35 31 26 50 43 55 11 5 16 80 7
100 100 95 7 2 0 0 0 0 0 0 0 0 0 2 5 5 15 98 98 100 97 100 94 100 100 100 44 100 98 100 100 93 100 100 32 64 52 77 73 99 42 73 85 92 5 5 5 5
45 66 0 0 0 0 0 0 0 0 0 0 0 0 0 5 33 99 38 99 100 98 100 100 100 79 100 99 100 100 98 97 22 100 100 95 66 67 88 60 100 100 99 25 100 49 17 5 5
35 7 0 0 0 0 0 0 0 0 0 0 0 0 0 0 49 52 94 76 99 100 100 100 100 100 100 100 91 93 100 100 92 90 97 97 88 97 100 46 100 92 100 88 8 46 31 31 5
98 1 0 0 0 0 0 0 84 0 0 0 0 0 0 0 7 93 97 100 99 100 99 100 100 100 100 100 52 100 100 86 100 24 79 100 78 100 94 86 99 100 100 100 12 48 5 46 32
8 5 0 0 0 0 0 2 1 0 0 0 0 0 0 0 0 38 99 100 90 94 100 100 100 100 100 100 100 100 100 100 100 100 80 100 100 84 91 98 83 90 100 100 95 28 96 5 5
61 5 0 0 0 0 0 0 0 0 0 0 0 0 0 0 0 4 97 96 88 89 75 97 100 100 80 100 100 100 100 99 13 96 100 71 100 100 100 76 92 85 100 100 100 18 94 41 6
82 2 0 0 16 2 39 93 0 18 65 8 16 6 0 0 0 4 5 6 82 63 5 5 96 100 100 100 82 64 98 96 22 87 12 50 100 100 100 95 99 81 100 100 100 64 93 100 48
62 62 28 23 20 43 100 100 100 98 96 78 46 97 9 0 0 0 5 49 5 2 0 1 55 26 6 6 41 81 9 4 97 6 24 31 88 87 46 91 97 100 100 100 100 100 82 7 74
91 100 96 75 8 53 100 100 100 100 99 96 62 98 90 0 0 0 0 3 9 7 34 3 0 2 8 52 5 82 20 1 0 40 99 10 16 76 100 94 100 100 100 100 100 100 5 98 95
96 100 97 100 51 100 100 100 100 100 97 88 67 88 100 5 5 0 0 0 0 0 0 5 0 0 0 0 0 0 0 0 22 97 100 68 100 85 100 99 93 100 100 99 98 88 100 97 96
75 100 100 96 71 100 100 100 100 100 100 81 100 100 100 27 17 5 1 6 0 0 0 0 0 0 0 100 67 0 0 48 21 98 100 85 100 100 100 92 100 100 100 100 100 100 100 100 100
54 100 100 100 99 97 100 100 100 100 99 100 97 100 100 97 5 41 16 93 4 0 0 0 0 0 0 0 17 8 96 16 5 38 71 100 100 100 100 91 100 100 100 100 100 100 76 20 43
21 100 100 100 100 100 100 100 98 100 100 100 20 95 100 96 81 100 100 59 0 0 0 6 0 0 0 0 15 0 77 70 5 80 22 98 100 100 100 100 100 100 100 100 100 20 73 40 100
2 67 98 100 100 100 100 100 100 100 100 100 100 98 100 98 64 100 100 51 0 0 0 71 4 0 0 0 0 0 0 0 23 25 100 100 100 100 100 100 100 100 100 100 100 100 96 100 100
84 83 100 26 44 69 73 100 100 61 100 100 100 38 100 99 64 87 100 5 0 0 0 98 100 53 2 0 0 0 0 0 11 89 98 100 100 100 100 100 100 100 100 100 100 100 100 100 100
100 99 88 4 16 4 82 69 92 75 100 100 40 89 96 39 4 17 24 5 0 0 0 45 90 100 1 0 1 0 0 0 51 9 98 100 100 100 100 100 100 100 100 100 100 100 100 100 100
22 86 24 59 82 100 88 10 48 58 46 100 44 83 30 5 4 2 22 40 0 0 0 4 92 54 0 2 1 2 0 0 14 16 100 100 100 100 100 100 100 100 100 100 100 100 100 100 100
0 0 0 0 0 4 5 25 100 100 47 95 49 39 62 26 34 33 87 10 0 0 0 0 10 5 5 5 5 5 25 0 4 98 100 98 100 100 100 92 100 79 100 91 94 100 100 100 100
0 0 0 0 0 0 40 37 5 72 60 99 98 99 100 39 100 100 100 100 0 0 0 0 5 5 0 0 4 10 26 0 1 45 100 100 100 100 88 100 100 100 100 100 100 92 100 100 100
0 0 0 0 0 0 0 4 0 0 6 42 56 88 96 100 99 100 100 93 0 0 0 0 22 4 0 0 4 6 0 7 80 100 100 96 100 100 100 100 98 99 100 100 100 80 100 100 100
0 0 0 0 0 0 0 0 5 0 15 5 37 79 100 100 100 76 100 4 0 0 0 0 0 3 0 0 0 17 5 6 100 100 100 100 100 100 100 100 100 97 100 100 88 100 100 100 100